Weather History for KLAW - February, 2014

Change the Weather History Date:

Saturday, February 8, 2014

  Actual Average Record
Temperature  
Mean Temperature 32 °F -  
Max Temperature 42 °F 52 °F 80 °F (2015)
Min Temperature 21 °F 27 °F 6 °F (1971)
Degree Days  
Heating Degree Days 34    
Moisture  
Dew Point 27 °F    
Average Humidity 92    
Maximum Humidity 100    
Minimum Humidity 70    
Precipitation  
Precipitation 0.00 in - - ()
Sea Level Pressure  
Sea Level Pressure 30.09 in    
Wind  
Wind Speed 6 mph (ESE)    
Max Wind Speed 9 mph    
Max Gust Speed -    
Visibility 3 miles    
Events Fog    
Averages and records for this station are not official NWS values.
T = Trace of Precipitation, MM = Missing Value Source: NWS Daily Summary

Daily Weather History Graph

Daily Weather History Graph

Search for Another Location

Airport or City:

Trip Planner

Search our weather history database for the weather conditions in past years. The results will help you decide how hot, cold, wet, or windy it might be!

Date:

Astronomy

Feb. 08, 2014 Rise Set
Actual Time 7:25 AM CST 6:10 PM CST
Civil Twilight 6:59 AM CST 6:36 PM CST
Nautical Twilight 6:30 AM CST 7:06 PM CST
Astronomical Twilight 6:00 AM CST 7:35 PM CST
Moon 1:09 PM CST (2/8) 2:36 AM CST (2/8)
Length of Visible Light 11h 36m
Length of Day
10h 44m
Waxing Gibbous, 69% of the Moon is Illuminated
Feb 8
Waxing Gibbous
Feb 14
Full
Feb 22
Last Quarter
Mar 1
New
Mar 8
First Quarter

Hourly Weather History & Observations

Time (CST) Temp. Windchill Dew Point Humidity Pressure Visibility Wind Dir Wind Speed Gust Speed Precip Events Conditions
12:53 AM 23.0 °F 17.0 °F 21.9 °F 96% 30.17 in 4.0 mi SE 4.6 mph - N/A   Clear
1:53 AM 23.0 °F 17.0 °F 21.9 °F 96% 30.17 in 3.0 mi SSE 4.6 mph - N/A   Clear
2:23 AM 21.2 °F 14.9 °F 21.2 °F 100% 30.12 in 2.5 mi SE 4.6 mph - N/A   Clear
2:53 AM 21.9 °F 13.4 °F 21.0 °F 96% 30.14 in 2.5 mi ESE 6.9 mph - N/A   Clear
3:53 AM 23.0 °F 14.7 °F 21.9 °F 96% 30.13 in 2.5 mi ESE 6.9 mph - N/A   Clear
4:38 AM 21.2 °F 14.9 °F 21.2 °F 100% 30.08 in 2.5 mi East 4.6 mph - N/A   Mostly Cloudy
4:53 AM 24.1 °F 18.2 °F 23.0 °F 96% 30.12 in 2.5 mi East 4.6 mph - N/A   Overcast
5:00 AM 24.8 °F 19.1 °F 23.0 °F 93% 30.08 in 3.0 mi East 4.6 mph - N/A   Overcast
5:53 AM 27.0 °F 18.0 °F 25.0 °F 92% 30.11 in 3.0 mi SSE 9.2 mph - N/A   Overcast
6:16 AM 26.6 °F 19.1 °F 24.8 °F 93% 30.09 in 2.5 mi SSE 6.9 mph - N/A   Overcast
6:26 AM 26.6 °F 18.2 °F 26.6 °F 100% 30.09 in 2.5 mi SSE 8.1 mph - N/A   Overcast
6:53 AM 27.0 °F 19.5 °F 26.1 °F 96% 30.14 in 2.0 mi SSE 6.9 mph - N/A   Overcast
7:07 AM 26.6 °F 18.2 °F 26.6 °F 100% 30.10 in 1.8 mi SE 8.1 mph - N/A   Overcast
7:53 AM 27.0 °F 19.5 °F 27.0 °F 100% 30.14 in 1.2 mi SE 6.9 mph - N/A   Overcast
8:25 AM 28.4 °F 22.2 °F 26.6 °F 93% 30.11 in 0.5 mi SE 5.8 mph - N/A Fog Light Freezing Fog
8:53 AM 28.0 °F 21.7 °F 28.0 °F 100% 30.15 in 0.5 mi SSE 5.8 mph - N/A Fog Light Freezing Fog
9:10 AM 28.4 °F 19.7 °F 28.4 °F 100% 30.09 in 0.2 mi SE 9.2 mph - N/A Fog Light Freezing Fog
9:38 AM 28.4 °F 22.2 °F 28.4 °F 100% 30.10 in 0.5 mi SSE 5.8 mph - N/A Fog Light Freezing Fog
9:53 AM 28.9 °F 21.1 °F 28.9 °F 100% 30.14 in 0.5 mi SE 8.1 mph - N/A Fog Light Freezing Fog
10:53 AM 30.9 °F 22.8 °F 30.0 °F 96% 30.13 in 1.8 mi South 9.2 mph - N/A   Overcast
11:07 AM 30.2 °F 23.4 °F 30.2 °F 100% 30.09 in 2.0 mi SSE 6.9 mph - N/A   Overcast
11:53 AM 32.0 °F 25.6 °F 30.9 °F 96% 30.12 in 3.0 mi South 6.9 mph - N/A   Overcast
12:24 PM 32.0 °F - 30.2 °F 93% 30.09 in 3.0 mi Calm Calm - N/A   Overcast
12:53 PM 34.0 °F 28.8 °F 30.9 °F 89% 30.10 in 4.0 mi SSE 5.8 mph - N/A   Overcast
1:53 PM 35.1 °F 32.2 °F 30.9 °F 85% 30.06 in 4.0 mi ENE 3.5 mph - N/A   Overcast
2:38 PM 35.6 °F 32.8 °F 30.2 °F 81% 30.00 in 6.0 mi East 3.5 mph - N/A   Haze
2:53 PM 37.0 °F - 32.0 °F 82% 30.03 in 6.0 mi Calm Calm - N/A   Haze
3:19 PM 39.2 °F - 32.0 °F 75% 30.01 in 6.0 mi Calm Calm - N/A   Haze
3:53 PM 41.0 °F 37.1 °F 33.1 °F 73% 30.03 in 7.0 mi ENE 5.8 mph - N/A   Clear
4:53 PM 42.1 °F 40.2 °F 33.1 °F 70% 30.03 in 7.0 mi NNE 3.5 mph - N/A   Clear
5:53 PM 39.0 °F 36.8 °F 32.0 °F 76% 30.02 in 8.0 mi East 3.5 mph - N/A   Clear
6:53 PM 34.0 °F 28.0 °F 30.0 °F 85% 30.04 in 7.0 mi NNE 6.9 mph - N/A   Clear
7:53 PM 32.0 °F 26.4 °F 28.9 °F 88% 30.06 in 6.0 mi NNE 5.8 mph - N/A   Clear
8:53 PM 30.0 °F 24.1 °F 28.0 °F 92% 30.09 in 5.0 mi NE 5.8 mph - N/A   Clear
9:53 PM 28.0 °F - 26.1 °F 92% 30.09 in 4.0 mi Calm Calm - N/A   Clear
10:53 PM 30.0 °F 23.2 °F 28.0 °F 92% 30.09 in 4.0 mi NE 6.9 mph - N/A   Clear
11:53 PM 28.9 °F 21.1 °F 28.0 °F 96% 30.09 in 3.0 mi NNE 8.1 mph - N/A   Clear